metlocid,date_time,avg_airt3m,std_airt3m,min_airt3m,max_airt3m,n_airt3m,avg_airtdel3m1,std_airtdel3m1,min_airtdel3m1,max_airtdel3m1,n_airtdel3m1,n_comments
EXEM,11/1/97,-2.8148427,3.177733746,-9.98,3.93,890,,,,,0,0
EXEM,12/1/97,-3.710487235,3.180723909,-10.66,3.57,2976,,,,,0,0
EXEM,1/1/98,-3.907458431,2.721266928,-10.84,3.27,2947,-0.8052164,0.691635667,-3.08,3.34,1756,0
EXEM,2/1/98,-8.270732882,4.138427207,-21.22,1.43,2688,-0.039780506,1.004575718,-4.1,5.91,2688,0
EXEM,3/1/98,-20.34708177,4.729241809,-34.74,-7.17,2947,0.8082321,0.895564519,-2.22,6.45,2947,0
EXEM,4/1/98,-31.57004209,7.596067077,-47.46,-7.91,2851,0.792329007,0.538854515,-0.1,3.4,2851,0
EXEM,5/1/98,-26.69048051,7.227094793,-43.01,-3.98,2976,0.699821908,0.559518402,-0.21,3.23,2976,0
EXEM,6/1/98,-20.61975694,5.346671308,-32.35,-7.68,2880,0.622225694,0.499561055,-0.54,3.07,2880,0
EXEM,7/1/98,-28.58795699,7.660055135,-45.08,-10.63,2976,0.733662634,0.558133227,-0.22,4,2976,0
EXEM,8/1/98,-29.97110887,8.137513691,-43.77,-10.24,2976,0.697409273,0.463527115,-0.52,3.69,2976,0
EXEM,9/1/98,-32.87880904,6.848533991,-45.78,-7.38,2880,0.716902777,0.579252183,-1.66,3.59,2880,0
EXEM,10/1/98,-17.85858198,5.23295635,-30.36,-1.62,2976,0.104028897,0.951739352,-3.43,3.79,2976,0
EXEM,11/1/98,-10.48078125,4.985942563,-25.31,-0.26,2880,-0.739947917,0.761537696,-2.61,3.46,2880,0
EXEM,12/1/98,-3.363713035,3.058653057,-10.82,5.53,2976,-1.028682795,0.555272916,-2.38,0.07,2976,0
EXEM,1/1/99,-1.770152699,2.309036873,-8.08,7.33,2947,-0.784058365,0.615569177,-2.43,0.53,2947,0
EXEM,2/1/99,-8.714371276,4.89352937,-21.92,0.86,2688,-0.504095982,0.763608362,-3.18,2.14,2688,0
EXEM,3/1/99,-20.70993614,5.529519334,-34.28,-6.56,2976,0.588397178,0.778337522,-3.3,4.9,2976,0
EXEM,4/1/99,-29.12005556,7.349962827,-44.53,-10.2,2880,0.73601736,0.573722972,-0.38,3.26,2880,0
EXEM,5/1/99,-31.64364246,8.162006816,-47.65,-9.3,2976,0.894573252,0.58119658,-0.66,3.75,2976,0
EXEM,6/1/99,-26.41214582,6.673547105,-40.57,-5.31,2880,0.667496527,0.540526498,-0.29,3.36,2880,0
EXEM,7/1/99,-24.91462028,8.554758898,-43.13,-7.37,2976,0.739415322,0.546176128,-0.2,3.48,2976,0
EXEM,8/1/99,-34.03077617,8.542305762,-48.96,-11.59,2976,0.75345094,0.52882475,-0.89,3.5,2976,0
EXEM,9/1/99,-24.17651041,7.886523198,-45.8,-0.92,2880,0.660461805,0.634570219,-1.49,4.58,2880,0
EXEM,10/1/99,-18.43070229,5.848263874,-35.49,-2.66,2976,0.251058468,0.973969021,-2.9,5.21,2976,0
EXEM,11/1/99,-7.653434027,4.003508822,-21.28,3.59,2880,-0.549857639,0.658444925,-3.48,2.15,2880,0
EXEM,12/1/99,-3.263746637,1.973246843,-10.7,1.44,2976,-0.938333333,0.506814581,-2.64,0.15,2976,0
EXEM,1/1/00,-3.745117606,2.608286314,-12.37,2.78,2976,-0.617812499,0.368219179,-1.43,0.3,2976,0
EXEM,2/1/00,-9.064626444,3.50167674,-18.27,-0.45,2784,-0.330481322,0.41614945,-1.36,1.49,2784,0
EXEM,3/1/00,-16.99443213,5.591690645,-32.96,-4.47,2976,0.135611559,0.416577769,-1.01,1.82,2976,0
EXEM,4/1/00,-22.56287847,6.839900225,-36.86,-2.49,2880,0.503878472,0.395071749,-0.21,2.29,2880,0
EXEM,5/1/00,-27.6737836,7.62360111,-46.23,-6.26,2976,0.533487902,0.406381281,-0.08,2.51,2976,0
EXEM,6/1/00,-30.57287847,10.94070719,-45.86,-1.01,2880,0.525138888,0.325873472,-0.07,2.47,2880,0
EXEM,7/1/00,-26.63498655,8.895202639,-47.54,-3.99,2976,0.469714381,0.350673808,-0.04,2.11,2976,0
EXEM,8/1/00,-29.34783602,8.860727869,-46.59,-7.76,2976,0.49078293,0.371299637,-0.12,2.25,2976,0
EXEM,9/1/00,-29.34813193,8.356097454,-45.56,-6,2880,0.326170139,0.408435989,-1.22,2.07,2880,0
EXEM,10/1/00,-22.22086023,5.338639405,-34.16,-6.72,2976,-0.105114247,0.561297764,-1.66,1.74,2976,0
EXEM,11/1/00,-6.820945108,5.55008428,-24.9,3.72,2878,-0.341365057,0.36396346,-1.81,1.44,2879,2
EXEM,12/1/00,-4.116051749,2.122888876,-9.84,1.8,2976,-0.651754031,0.315346011,-1.52,-0.04,2976,0
EXEM,1/1/01,-6.218686163,2.409679781,-11.46,-0.24,2976,-0.599882392,0.358920538,-1.6,0.32,2976,0
EXEM,2/1/01,-8.014043905,3.319380927,-19.51,5.28,2688,-0.333526785,0.430508983,-1.35,1.51,2688,0
EXEM,3/1/01,-21.22162298,5.173644407,-31.09,-1.22,2976,0.083951613,0.462939868,-1.11,1.72,2976,0
EXEM,4/1/01,-26.30764929,6.808908141,-43.48,-8.45,2880,0.442979166,0.383452189,-0.27,2.51,2880,0
EXEM,5/1/01,-26.4344422,9.682128366,-43.59,-3.82,2976,0.491982526,0.365967028,-0.1,2.53,2976,0
EXEM,6/1/01,-25.13255558,7.761905561,-41.84,-2.76,2880,0.556069444,0.424841062,-0.04,2.58,2880,0
EXEM,7/1/01,-27.03020497,7.023364394,-45.22,-7.77,2976,0.546801075,0.407565985,-0.11,2.85,2976,0
EXEM,8/1/01,-38.29342404,5.912147961,-49.81,-20.46,2976,0.567389112,0.34585158,-0.1,2.4,2976,0
EXEM,9/1/01,-29.43802082,7.681993587,-45,-6.43,2880,0.5525625,0.422575297,-1.47,2.35,2880,0
EXEM,10/1/01,-18.94193548,6.563139586,-33.85,-3.64,2976,-0.02984879,0.631052377,-1.43,2.37,2976,0
EXEM,11/1/01,-8.786312506,4.19129667,-21.42,1.06,2880,-0.463138888,0.405017516,-1.39,1.47,2880,0
EXEM,12/1/01,-1.102442875,3.332026162,-10.51,11.64,2976,-0.673857526,0.362187804,-1.52,0.05,2976,0
EXEM,1/1/02,-1.430561158,3.652921976,-8.88,11.17,2976,-0.569848789,0.353823215,-1.39,0.06,2976,0
EXEM,2/1/02,-7.677883182,4.088408557,-18.71,2.01,2688,-0.302920386,0.41318535,-1.28,1.45,2688,0
EXEM,3/1/02,-17.10537634,4.990615848,-30.24,-4.51,2976,0.148380376,0.457694842,-1.28,2.07,2976,0
EXEM,4/1/02,-25.17462501,7.654601116,-38.16,-6.1,2880,0.514885416,0.376004183,-0.57,2.53,2880,0
EXEM,5/1/02,-22.19886089,7.415201872,-39.37,-3.35,2976,0.417634408,0.370709856,-0.09,2.4,2976,0
EXEM,6/1/02,-33.04554513,7.425387362,-47.29,-8.08,2880,0.497114583,0.333457745,-0.08,2.26,2880,0
EXEM,7/1/02,-35.51335347,7.421056935,-47.12,-11.91,2976,0.605816531,0.356119145,-0.09,2.34,2976,0
EXEM,8/1/02,-36.13259071,7.737080241,-49.5,-11.39,2976,0.540026881,0.318668658,-0.08,2.03,2976,0
EXEM,9/1/02,-26.72932291,6.994923088,-44.89,-5.69,2880,0.424763888,0.410054528,-1.06,2.4,2880,0
EXEM,10/1/02,-20.22961023,4.782193843,-31.26,-5.28,2976,0.098356854,0.579723859,-2.28,2.19,2976,0
EXEM,11/1/02,-11.34100694,2.569186772,-18.64,-1.56,2880,-0.335045138,0.498596986,-2.34,2.2,2880,0
EXEM,12/1/02,-5.253732344,3.062402042,-13.15,3.31,2974,-0.555863574,0.302870735,-1.75,0.47,2976,2
EXEM,1/1/03,-2.050417808,2.809534133,-8.53,5.79,2920,-0.491361607,0.347214454,-4.46,0.17,2688,57
EXEM,2/1/03,-8.641551335,2.869490924,-16.48,-0.5,2688,,,,,0,0
EXEM,3/1/03,-20.33120633,5.848153207,-33.26,-6.07,2976,,,,,0,0
EXEM,4/1/03,-28.45789929,6.249563445,-41.2,-2.49,2880,,,,,0,0
EXEM,5/1/03,-22.95292675,8.477696595,-38.32,1.17,2976,,,,,0,0
EXEM,6/1/03,-28.4727535,5.597177952,-42.79,-15.1,2880,,,,,0,0
EXEM,7/1/03,-26.55909609,6.929885497,-42.73,-10.38,2976,,,,,0,0
EXEM,8/1/03,-34.55784275,6.107143146,-50.14,-13.89,2976,,,,,0,0
EXEM,9/1/03,-25.79875694,8.540386765,-45.5,-9.01,2880,,,,,0,0
EXEM,10/1/03,-16.87017808,4.557228173,-29.75,-6.42,2976,,,,,0,0
EXEM,11/1/03,-9.989336803,3.124267944,-20.23,1.63,2880,,,,,0,0
EXEM,12/1/03,-2.538168686,2.94594259,-9.98,4.45,2976,,,,,0,0
EXEM,1/1/04,-4.170742608,3.074874029,-11.76,6.15,2976,,,,,0,0
EXEM,2/1/04,-9.902726292,3.504547374,-19.84,-3.18,2784,,,,,0,0
EXEM,3/1/04,-24.15807459,5.065444917,-38.9,-10.4,2976,,,,,0,0
EXEM,4/1/04,-26.80743054,5.178855251,-40.19,-12.19,2880,,,,,0,0
EXEM,5/1/04,-29.94652889,9.055460205,-45.64,-4.04,2976,,,,,0,0
EXEM,6/1/04,-26.62192706,7.891010177,-41.23,-6.22,2880,,,,,0,0
EXEM,7/1/04,-38.89892137,6.171266236,-50.1,-12.2,2976,,,,,0,0
EXEM,8/1/04,-35.08951609,6.240722616,-47.46,-9.53,2976,,,,,0,0
EXEM,9/1/04,-30.70897914,4.886145688,-40.68,-14.19,2880,,,,,0,0
EXEM,10/1/04,-20.33338036,7.879845492,-42.41,-5.53,2976,,,,,0,0
EXEM,11/1/04,-7.186743059,4.491728321,-20.13,3.14,2880,,,,,0,0
EXEM,12/1/04,-1.470799732,1.942636267,-8.96,4.09,2976,,,,,0,0
EXEM,1/1/05,-1.709482071,1.032325204,-4.43,0.83,251,,,,,0,0
EXEM,12/1/05,,,,,0,,,,,0,1
EXEM,11/1/06,-4.769141113,1.45060641,-8.12,-1.49,326,,,,,0,0
EXEM,12/1/06,-4.686995969,2.856963584,-11.09,3.37,2976,,,,,0,0
EXEM,1/1/07,-0.56389916,1.781948414,-6.1,5.39,2975,,,,,0,0
EXEM,2/1/07,-9.960580371,5.087400327,-26.77,-1.32,2688,,,,,0,0
EXEM,3/1/07,-19.68547043,5.794554537,-32.7,-2.39,2976,,,,,0,0
EXEM,4/1/07,-26.75989239,7.679849451,-43.64,-7.18,2880,,,,,0,0
EXEM,5/1/07,-24.75316869,7.663365471,-40.81,-7.03,2976,,,,,0,0
EXEM,6/1/07,-23.66270483,8.085900445,-42.9,-2.36,2880,,,,,0,0
EXEM,7/1/07,-26.29988239,8.033657376,-44.76,-6.2,2976,,,,,0,0
EXEM,8/1/07,-26.7355242,6.583898206,-41.26,-2.91,2976,,,,,0,0
EXEM,9/1/07,-23.21111457,5.685800778,-37.97,-7.57,2880,,,,,0,0
EXEM,10/1/07,-21.25243279,5.386986649,-37.58,-8.97,2976,,,,,0,0
EXEM,11/1/07,-10.70048264,6.389168252,-32.6,-1.17,2880,,,,,0,0
EXEM,12/1/07,-2.620450272,3.689367168,-11.17,7.48,2976,,,,,0,0
EXEM,1/1/08,-2.177651209,2.386885771,-8.56,4,2976,,,,,0,0
EXEM,2/1/08,-10.40052443,3.274389664,-17.79,-3.26,2784,,,,,0,0
EXEM,3/1/08,-18.73821908,7.41725415,-33.2,1.68,2976,,,,,0,0
EXEM,4/1/08,-22.97451042,5.454104447,-33.98,-7.43,2880,,,,,0,0
EXEM,5/1/08,-28.13961021,6.740449035,-41.76,-5.15,2976,,,,,0,0
EXEM,6/1/08,-20.68568401,6.769228891,-35.54,-2.73,2880,,,,,0,0
EXEM,7/1/08,-32.45962366,7.628773847,-46.7,-10.36,2976,,,,,0,0
EXEM,8/1/08,-37.80542006,5.744811987,-49.64,-16.42,2976,,,,,0,0
EXEM,9/1/08,-21.18663542,7.942068216,-44.67,-6.99,2880,,,,,0,0
EXEM,10/1/08,-19.13546372,4.333650016,-31.63,-6.94,2976,,,,,0,0
EXEM,11/1/08,-11.33893055,4.410611368,-22.15,1.44,2880,,,,,0,0
EXEM,12/1/08,-2.536502015,2.638537084,-9.81,6.64,2976,,,,,0,0
EXEM,1/1/09,-2.89716734,2.216038105,-9.11,3.09,2976,,,,,0,0
EXEM,2/1/09,-11.97247394,6.124516841,-27.43,-0.93,2688,,,,,0,0
EXEM,3/1/09,-21.37952621,5.301919522,-32.04,-4.96,2976,,,,,0,0
EXEM,4/1/09,-20.92642707,6.814207427,-35.82,-4.11,2880,,,,,0,0
EXEM,5/1/09,-28.54732191,8.829479207,-43.75,-7.51,2976,,,,,0,0
EXEM,6/1/09,-27.0778368,8.445508557,-45.62,-6.51,2880,,,,,0,0
EXEM,7/1/09,-29.18288303,7.728479673,-45.14,-8.54,2976,,,,,0,0
EXEM,8/1/09,-30.53079637,8.10208865,-47.02,-12.36,2976,,,,,0,0
EXEM,9/1/09,-28.13072222,8.787321906,-46.98,-3.73,2880,,,,,0,0
EXEM,10/1/09,-20.98031922,5.227049342,-34.32,-4.58,2976,,,,,0,0
EXEM,11/1/09,-7.045895836,4.767984343,-18.76,4.25,2880,,,,,0,0
EXEM,12/1/09,-2.767530247,2.329847182,-8.8,5.68,2976,,,,,0,0
EXEM,1/1/10,-3.112786554,2.527862324,-8.42,2.01,1012,,,,,0,0
EXEM,11/1/10,-7.200604156,2.566237028,-14.35,3.29,2069,,,,,0,1
EXEM,12/1/10,-1.496377687,3.32774779,-10.47,11.42,2976,,,,,0,0
EXEM,1/1/11,-4.10169691,3.368473246,-11.81,4.47,2976,,,,,0,0
EXEM,2/1/11,-8.380364589,2.907201318,-17.97,-0.79,2688,,,,,0,0
EXEM,3/1/11,-18.33712028,4.894146102,-28.86,-7.48,2976,,,,,0,0
EXEM,4/1/11,-23.19444444,7.976783627,-40.27,-1.91,2880,,,,,0,0
EXEM,5/1/11,-26.63704635,7.478748408,-42.82,-4.63,2976,,,,,0,0
EXEM,6/1/11,-24.23242708,9.628153838,-46.37,-5.88,2880,,,,,0,0
EXEM,7/1/11,-23.87533602,9.754091838,-45.94,-3.9,2976,,,,,0,0
EXEM,8/1/11,-25.39399193,10.05133508,-44.71,-3.96,2976,,,,,0,0
EXEM,9/1/11,-26.13735414,8.662819848,-42.87,-6.78,2880,,,,,0,0
EXEM,10/1/11,-20.2363172,5.450163052,-34.38,-4.27,2976,,,,,0,0
EXEM,11/1/11,-7.011560963,3.409958857,-21.52,1.95,2870,,,,,0,10
EXEM,12/1/11,-2.947335352,2.68645804,-9.39,7.33,2976,,,,,0,0
EXEM,1/1/12,-3.413135077,2.508124395,-11.09,2.38,2976,,,,,0,0
EXEM,2/1/12,-7.844985634,4.087411846,-18.67,2.49,2784,,,,,0,0
EXEM,3/1/12,-18.25157257,5.303536444,-32.85,-4.92,2976,,,,,0,0
EXEM,4/1/12,-23.32882985,7.241553916,-39.14,-3.78,2880,,,,,0,0
EXEM,5/1/12,-18.68396505,8.126148145,-37.75,-1.66,2976,,,,,0,0
EXEM,6/1/12,-28.23466668,6.792177099,-40.33,-6.45,2880,,,,,0,0
EXEM,7/1/12,-31.71679772,5.935127299,-45.5,-15.24,2976,,,,,0,0
EXEM,8/1/12,-28.86258737,8.563153475,-44.34,-8.61,2976,,,,,0,0
EXEM,9/1/12,-25.01784029,6.082299319,-38.54,-10.68,2880,,,,,0,0
EXEM,10/1/12,-18.33630713,4.100581887,-34.42,-8.11,2976,,,,,0,0
EXEM,11/1/12,-10.77125182,4.118218253,-21.06,2.01,2053,,,,,0,0
EXEM,1/1/13,-2.543492439,2.229369126,-8.84,2.73,2975,,,,,0,2975
EXEM,2/1/13,-9.668563988,3.272241865,-19.09,-1.83,2688,,,,,0,2688
EXEM,3/1/13,-18.02748656,6.729831285,-36.04,-4.16,2976,,,,,0,2976
EXEM,4/1/13,-30.06874651,6.75250267,-45.08,-12.06,2880,,,,,0,2880
EXEM,5/1/13,-24.65759632,7.307777715,-40.77,-6.88,2725,,,,,0,2725
EXEM,6/1/13,-27.1783854,6.573153224,-43.91,-8.7,2880,,,,,0,2880
EXEM,7/1/13,-31.62209004,5.908344873,-46.12,-10.8,2976,,,,,0,2976
EXEM,8/1/13,-30.51976139,7.00854883,-43.38,-6.69,2976,,,,,0,2976
EXEM,9/1/13,-22.94064763,7.859471538,-43.54,-3.59,2100,,,,,0,2100
EXEM,10/1/13,-19.28127351,4.841377248,-30.25,-6.1,2976,,,,,0,2976
EXEM,11/1/13,-9.744256939,5.909662518,-24.49,2.2,2880,,,,,0,2880
EXEM,12/1/13,-2.104479166,2.22437192,-7.24,3.08,2976,,,,,0,2976
EXEM,1/1/14,0.306319846,2.959223877,-6.29,5.07,1038,,,,,0,1038
EXEM,2/1/14,-7.378247768,3.865056555,-17.45,2.14,2688,,,,,0,2688
EXEM,3/1/14,-18.53724462,6.085083866,-35.96,-8.37,2976,,,,,0,2976
EXEM,4/1/14,-25.81170831,7.548855985,-42.03,-4.43,2880,,,,,0,2880
EXEM,5/1/14,-23.94230845,10.04856005,-43.16,-4.4,2976,,,,,0,2976
EXEM,6/1/14,-28.65977429,5.809513786,-42.16,-9.6,2880,,,,,0,2880
EXEM,7/1/14,-36.49095091,8.924375314,-49.45,-4.37,2976,,,,,0,2976
EXEM,8/1/14,-22.92884073,8.259473675,-45.09,-4.31,2976,,,,,0,2976
EXEM,9/1/14,-19.92799655,6.060415054,-33.96,-5.04,2880,,,,,0,2880
EXEM,10/1/14,-14.57175067,4.875217289,-28.99,-0.9,2976,,,,,0,2976
EXEM,11/1/14,-9.548589298,3.123826758,-18.95,-1.58,2878,,,,,0,2878
EXEM,12/1/14,-4.359596779,2.39900911,-11.74,0.92,2976,,,,,0,2976
EXEM,1/1/15,-2.100043686,2.215199803,-7.22,4.74,2976,,,,,0,2976
EXEM,2/1/15,-5.501383935,3.386772227,-13.93,3.87,2688,,,,,0,2688
EXEM,3/1/15,-19.53331653,5.855353053,-30.8,-5.53,2976,,,,,0,2976
EXEM,4/1/15,-28.70138886,6.319455522,-42.8,-7.85,2880,,,,,0,2880
EXEM,5/1/15,-32.07964044,4.656722873,-45.62,-15.66,2976,,,,,0,2976
EXEM,6/1/15,-28.03713539,6.379509331,-40.18,-12.05,2880,,,,,0,2880
EXEM,7/1/15,-31.51163305,7.286992615,-45.97,-10.16,2976,,,,,0,2976
EXEM,8/1/15,-29.70734206,7.789904396,-44.41,-9.69,2976,,,,,0,2976
EXEM,9/1/15,-30.25052083,7.63288931,-46.52,-11.75,2880,,,,,0,2880
EXEM,10/1/15,-16.64644153,4.626211211,-29.53,-3.21,2976,,,,,0,2976
EXEM,11/1/15,-9.166673625,5.76470952,-23.19,2.5,2877,,,,,0,2877
EXEM,12/1/15,-1.920530915,2.526190221,-7.09,9.33,2976,,,,,0,2976
EXEM,1/1/16,-1.382584007,2.735026736,-8.77,5.5,2976,,,,,0,2976
EXEM,2/1/16,-7.34766523,4.285579849,-17.09,4.58,2784,,,,,0,2784
EXEM,3/1/16,-19.47558805,4.539451624,-33.24,-8.44,2976,,,,,0,2976
EXEM,4/1/16,-28.00153818,8.068541269,-40.85,-5.09,2880,,,,,0,2880
EXEM,5/1/16,-27.88324595,8.394007026,-43.76,-4.31,2976,,,,,0,2976
EXEM,6/1/16,-31.60138195,5.070319285,-43.8,-17.42,2880,,,,,0,2880
EXEM,7/1/16,-37.21787297,7.591073558,-49.35,-10.69,2976,,,,,0,2976
EXEM,8/1/16,-30.25337027,7.89906575,-46.8,-7.67,2976,,,,,0,2976
EXEM,9/1/16,-30.70993404,8.627340119,-46.34,-10.51,2880,,,,,0,2880
EXEM,10/1/16,-21.31157594,4.123199634,-32.35,-6.07,2976,,,,,0,2976
EXEM,11/1/16,-10.98852777,3.888826538,-23.54,1.29,2880,,,,,0,2880
EXEM,12/1/16,-4.519159662,2.995132973,-13.8,3.14,2975,,,,,0,2975
EXEM,1/1/17,-2.490749329,2.354043972,-9.85,5.66,2976,,,,,0,2976
EXEM,2/1/17,-8.42527529,4.00020292,-17.97,3.93,2688,,,,,0,2688
EXEM,3/1/17,-17.81811158,5.110672355,-32.24,-6.29,2976,,,,,0,2976
EXEM,4/1/17,-23.42154514,5.640688379,-36.83,-10.11,2880,,,,,0,2880
EXEM,5/1/17,-22.03158603,6.392861623,-35.86,-4.29,2976,,,,,0,2976
EXEM,6/1/17,-28.12573609,8.904049959,-46.77,-9.5,2880,,,,,0,2880
EXEM,7/1/17,-28.43904906,7.460038223,-41.84,-8.63,2976,,,,,0,2976
EXEM,8/1/17,-26.55681451,9.130276661,-44.1,-5.9,2976,,,,,0,2976
EXEM,9/1/17,-30.29146526,5.975732753,-42.34,-11.02,2880,,,,,0,2880
EXEM,10/1/17,-16.7054301,5.737097233,-33.15,-3.35,2976,,,,,0,2976
EXEM,11/1/17,-10.77845913,5.007965042,-21.6,0.97,2875,,,,,0,2066
EXEM,12/1/17,-4.35857863,2.124001641,-10.51,4.29,2976,,,,,0,0
EXEM,1/1/18,-2.889102823,2.413877198,-8.7,4.34,2976,,,,,0,0
EXEM,2/1/18,-9.633102679,3.747338689,-20.64,-0.23,2688,,,,,0,0
EXEM,3/1/18,-16.24471773,5.445269693,-32.59,-0.96,2976,,,,,0,0
EXEM,4/1/18,-23.0204375,6.484811421,-38.78,-5.73,2880,,,,,0,0
EXEM,5/1/18,-28.05476812,7.017769603,-42.18,-7.26,2976,,,,,0,0
EXEM,6/1/18,-22.31809375,5.973324992,-39.39,-6.5,2880,,,,,0,0
EXEM,7/1/18,-28.55084677,9.096592097,-49.06,-8.51,2976,,,,,0,0
EXEM,8/1/18,-30.7814516,9.274910503,-46.72,-4.6,2976,,,,,0,0
EXEM,9/1/18,-27.39545486,6.983437606,-42.19,-8.65,2880,,,,,0,0
EXEM,10/1/18,-15.19342069,6.808819032,-30.11,-0.02,2976,,,,,0,0
EXEM,11/1/18,-7.473486115,3.891161118,-18.43,1.46,2880,,,,,0,0
EXEM,12/1/18,-1.426738616,2.866423884,-8.45,7.28,2965,,,,,0,0
EXEM,1/1/19,-2.829613577,2.111950111,-7.66,2.37,2976,,,,,0,0
EXEM,2/1/19,-6.544966516,2.626247785,-15.39,-1.42,2688,,,,,0,0
EXEM,3/1/19,-17.56876345,5.538578203,-35.09,-3.1,2976,,,,,0,0
EXEM,4/1/19,-24.07249305,9.113819453,-42.93,-4.43,2880,,,,,0,0
EXEM,5/1/19,-20.60437836,6.331168234,-34.97,-7.49,2976,,,,,0,0
EXEM,6/1/19,-26.58431252,9.440861741,-44.22,-7.04,2880,,,,,0,0
EXEM,7/1/19,-24.45695901,9.540654924,-40.27,0.79,2976,,,,,0,0
EXEM,8/1/19,-26.49114583,9.804499524,-45.26,-7.24,2976,,,,,0,0
EXEM,9/1/19,-24.46668751,6.512113296,-36.7,-9.61,2880,,,,,0,0
EXEM,10/1/19,-17.61236223,4.282355137,-29.87,-7.81,2976,,,,,0,0
EXEM,11/1/19,-7.009034721,3.936681947,-17.2,2.52,2880,,,,,0,0
EXEM,12/1/19,-2.401190155,2.256727542,-8.59,3.66,2966,,,,,0,0
EXEM,1/1/20,-3.072603432,2.530288902,-9.1,2.29,2973,,,,,0,2352
EXEM,2/1/20,-6.768638655,5.002529406,-22.67,5.46,2784,,,,,0,2784
EXEM,3/1/20,-19.56712365,5.163898432,-34.74,-8.26,2976,,,,,0,2976
EXEM,4/1/20,-23.05339583,5.230400127,-36.18,-8.28,2880,,,,,0,2880
EXEM,5/1/20,-26.69955643,6.181535482,-39.05,-7.88,2976,,,,,0,2976
EXEM,6/1/20,-25.9964514,9.025996346,-45.39,-3.73,2880,,,,,0,2880
EXEM,7/1/20,-26.98900537,8.424466295,-42.68,-2.4,2976,,,,,0,2976
EXEM,8/1/20,-25.67464382,6.978702776,-45.89,-4.84,2976,,,,,0,2976
EXEM,9/1/20,-26.20186805,8.805041465,-43.97,-5.31,2880,,,,,0,2880
EXEM,10/1/20,-16.94627014,5.241899587,-29.22,-2.02,2976,,,,,0,2976
EXEM,11/1/20,-8.897163203,4.767411814,-19.74,-0.59,2880,,,,,0,2880
EXEM,12/1/20,-1.575124326,2.220428719,-10.83,3.68,2976,,,,,0,2976
EXEM,1/1/21,-1.769600135,2.283434849,-7.12,8.38,2976,,,,,0,2976
EXEM,2/1/21,-8.558552833,4.85816023,-22.92,3.52,2688,,,,,0,2688
EXEM,3/1/21,-18.36722782,4.400918585,-32.19,-4.21,2976,,,,,0,2976
EXEM,4/1/21,-29.57578124,7.965706362,-48.08,-10.45,2880,,,,,0,2880
EXEM,5/1/21,-27.80669018,9.786525266,-46.16,-6.65,2976,,,,,0,2976
EXEM,6/1/21,-26.44417361,7.536957551,-43,-10.53,2880,,,,,0,2880
EXEM,7/1/21,-24.32905578,6.898500814,-38.82,-5.02,2976,,,,,0,2976
EXEM,8/1/21,-34.24547043,8.920733656,-50.49,-3.55,2976,,,,,0,2976
EXEM,9/1/21,-24.60640972,5.938623792,-41.55,-8.74,2880,,,,,0,2880
EXEM,10/1/21,-16.98828293,4.276793645,-29.31,-4.02,2976,,,,,0,2976
EXEM,11/1/21,-8.069663198,3.660986492,-19,1.91,2880,,,,,0,2880
EXEM,12/1/21,-1.878183642,3.158625212,-8.32,7.23,2494,,,,,0,2494
EXEM,1/1/22,-2.621995968,2.541709472,-8.74,5.88,2976,,,,,0,2976
EXEM,2/1/22,-5.92897321,4.874286856,-17.26,8.9,2688,,,,,0,2688
EXEM,3/1/22,-15.01245966,6.477036895,-31.34,5.18,2976,,,,,0,2976
EXEM,4/1/22,-24.46671179,8.072904066,-41.88,-7.11,2880,,,,,0,2880
EXEM,5/1/22,-20.47538643,6.569326105,-32.5,-2.11,2976,,,,,0,2976
EXEM,6/1/22,-23.79603817,9.549153106,-42.08,-4.13,2880,,,,,0,2880
EXEM,7/1/22,-22.3649496,5.802614085,-35.49,-10.12,2976,,,,,0,2976
EXEM,8/1/22,-26.49924059,10.42060569,-44.54,-3.6,2976,,,,,0,2976
EXEM,9/1/22,-26.29760071,9.166736011,-45.14,-8.65,2880,,,,,0,2880
EXEM,10/1/22,-16.56427084,4.105204945,-26.66,-4.05,2976,,,,,0,2976
EXEM,11/1/22,-11.42369098,5.068291721,-20.41,3.67,2880,,,,,0,2880
EXEM,12/1/22,-4.015073888,2.017298338,-8.73,1.82,812,,,,,0,812